User: anonymous   Login
Location: Monteux
(44.0348°N, 4.9972°E)
Time: 11:44:28
(UTC+00:00)
Language:

Cosmos 1515 Rocket - Orbit

View from above orbital plane
View from above orbital plane
View from above satellite
View from above satellite

Ground track
Ground track

The orbit data is extracted from the following two-line orbital elements,

1 14552U 83122B   21061.76898208  .00000073  00000-0  59520-5 0  9997
2 14552  82.5214 248.3635 0017594  17.5247 342.6571 14.83538519988914
Epoch (UTC): 02 March 2021 18:27:20
Eccentricity: 0.0017594
inclination: 82.5214°
perigee height: 606 km
apogee height: 630 km
right ascension of ascending node: 248.3635°
argument of perigee: 17.5247°
revolutions per day: 14.83538519
mean anomaly at epoch: 342.6571°
orbit number at epoch: 98891

The dashed part of the orbit path shows where the satellite is in the earth's shadow,  

DLR